Year,Month,Day,Hour,Minute,Value (Times are PST for temperature in C)
2013,10,24,00,00,8.00
2013,10,24,00,01,8.00
2013,10,24,00,02,8.00
2013,10,24,00,03,8.00
2013,10,24,00,04,8.00
2013,10,24,00,05,7.90
2013,10,24,00,06,8.00
2013,10,24,00,07,7.90
2013,10,24,00,08,7.90
2013,10,24,00,09,7.90
2013,10,24,00,10,7.90
2013,10,24,00,11,7.90
2013,10,24,00,12,7.90
2013,10,24,00,13,7.80
2013,10,24,00,14,7.80
2013,10,24,00,15,7.80
2013,10,24,00,16,7.80
2013,10,24,00,17,7.80
2013,10,24,00,18,7.80
2013,10,24,00,19,7.80
2013,10,24,00,20,7.90
2013,10,24,00,21,7.90
2013,10,24,00,22,7.90
2013,10,24,00,23,8.00
2013,10,24,00,24,7.90
2013,10,24,00,25,7.90
2013,10,24,00,26,7.90
2013,10,24,00,27,7.90
2013,10,24,00,28,7.90
2013,10,24,00,29,7.90
2013,10,24,00,30,7.90
2013,10,24,00,31,7.80
2013,10,24,00,32,7.80
2013,10,24,00,33,7.80
2013,10,24,00,34,7.70
2013,10,24,00,35,7.70
2013,10,24,00,36,7.70
2013,10,24,00,37,7.70
2013,10,24,00,38,7.70
2013,10,24,00,39,7.70
2013,10,24,00,40,7.70
2013,10,24,00,41,7.70
2013,10,24,00,42,7.80
2013,10,24,00,43,7.80
2013,10,24,00,44,7.80
2013,10,24,00,45,7.80
2013,10,24,00,46,7.80
2013,10,24,00,47,7.80
2013,10,24,00,48,7.80
2013,10,24,00,49,7.80
2013,10,24,00,50,7.80
2013,10,24,00,51,7.70
2013,10,24,00,52,7.70
2013,10,24,00,53,7.70
2013,10,24,00,54,7.70
2013,10,24,00,55,7.70
2013,10,24,00,56,7.70
2013,10,24,00,57,7.80
2013,10,24,00,58,7.80
2013,10,24,00,59,7.80
2013,10,24,01,00,7.80
2013,10,24,01,01,7.90
2013,10,24,01,02,7.90
2013,10,24,01,03,7.90
2013,10,24,01,04,7.80
2013,10,24,01,05,7.80
2013,10,24,01,06,7.80
2013,10,24,01,07,7.80
2013,10,24,01,08,7.80
2013,10,24,01,09,7.70
2013,10,24,01,10,7.70
2013,10,24,01,11,7.70
2013,10,24,01,12,7.70
2013,10,24,01,13,7.70
2013,10,24,01,14,7.70
2013,10,24,01,15,7.70
2013,10,24,01,16,7.60
2013,10,24,01,17,7.60
2013,10,24,01,18,7.60
2013,10,24,01,19,7.60
2013,10,24,01,20,7.60
2013,10,24,01,21,7.60
2013,10,24,01,22,7.60
2013,10,24,01,23,7.60
2013,10,24,01,24,7.60
2013,10,24,01,25,7.70
2013,10,24,01,26,7.70
2013,10,24,01,27,7.70
2013,10,24,01,28,7.70
2013,10,24,01,29,7.80
2013,10,24,01,30,7.80
2013,10,24,01,31,7.70
2013,10,24,01,32,7.70
2013,10,24,01,33,7.70
2013,10,24,01,34,7.70
2013,10,24,01,35,7.70
2013,10,24,01,36,7.70
2013,10,24,01,37,7.70
2013,10,24,01,38,7.60
2013,10,24,01,39,7.60
2013,10,24,01,40,7.60
2013,10,24,01,41,7.60
2013,10,24,01,42,7.60
2013,10,24,01,43,7.60
2013,10,24,01,44,7.60
2013,10,24,01,45,7.60
2013,10,24,01,46,7.60
2013,10,24,01,47,7.60
2013,10,24,01,48,7.60
2013,10,24,01,49,7.60
2013,10,24,01,50,7.60
2013,10,24,01,51,7.60
2013,10,24,01,52,7.60
2013,10,24,01,53,7.60
2013,10,24,01,54,7.60
2013,10,24,01,55,7.60
2013,10,24,01,56,7.60
2013,10,24,01,57,7.60
2013,10,24,01,58,7.60
2013,10,24,01,59,7.60
2013,10,24,02,00,7.60
2013,10,24,02,01,7.60
2013,10,24,02,02,7.60
2013,10,24,02,03,7.60
2013,10,24,02,04,7.60
2013,10,24,02,05,7.60
2013,10,24,02,06,7.60
2013,10,24,02,07,7.50
2013,10,24,02,08,7.50
2013,10,24,02,09,7.40
2013,10,24,02,10,7.40
2013,10,24,02,11,7.40
2013,10,24,02,12,7.30
2013,10,24,02,13,7.30
2013,10,24,02,14,7.30
2013,10,24,02,15,7.30
2013,10,24,02,16,7.30
2013,10,24,02,17,7.30
2013,10,24,02,18,7.30
2013,10,24,02,19,7.30
2013,10,24,02,20,7.30
2013,10,24,02,21,7.30
2013,10,24,02,22,7.20
2013,10,24,02,23,7.20
2013,10,24,02,24,7.20
2013,10,24,02,25,7.20
2013,10,24,02,26,7.20
2013,10,24,02,27,7.20
2013,10,24,02,28,7.20
2013,10,24,02,29,7.20
2013,10,24,02,30,7.20
2013,10,24,02,31,7.20
2013,10,24,02,32,7.20
2013,10,24,02,33,7.20
2013,10,24,02,34,7.20
2013,10,24,02,35,7.20
2013,10,24,02,36,7.10
2013,10,24,02,37,7.10
2013,10,24,02,38,7.10
2013,10,24,02,39,7.00
2013,10,24,02,40,7.00
2013,10,24,02,41,6.90
2013,10,24,02,42,6.90
2013,10,24,02,43,6.90
2013,10,24,02,44,6.80
2013,10,24,02,45,6.80
2013,10,24,02,46,6.80
2013,10,24,02,47,6.80
2013,10,24,02,48,6.80
2013,10,24,02,49,6.80
2013,10,24,02,50,6.80
2013,10,24,02,51,6.80
2013,10,24,02,52,6.90
2013,10,24,02,53,6.90
2013,10,24,02,54,6.90
2013,10,24,02,55,6.90
2013,10,24,02,56,6.90
2013,10,24,02,57,6.90
2013,10,24,02,58,6.90
2013,10,24,02,59,6.90
2013,10,24,03,00,6.90
2013,10,24,03,01,6.90
2013,10,24,03,02,6.90
2013,10,24,03,03,6.90
2013,10,24,03,04,6.90
2013,10,24,03,05,6.90
2013,10,24,03,06,6.90
2013,10,24,03,07,6.80
2013,10,24,03,08,6.80
2013,10,24,03,09,6.80
2013,10,24,03,10,6.80
2013,10,24,03,11,6.80
2013,10,24,03,12,6.80
2013,10,24,03,13,6.70
2013,10,24,03,14,6.70
2013,10,24,03,15,6.70
2013,10,24,03,16,6.70
2013,10,24,03,17,6.70
2013,10,24,03,18,6.70
2013,10,24,03,19,6.70
2013,10,24,03,20,6.70
2013,10,24,03,21,6.70
2013,10,24,03,22,6.70
2013,10,24,03,23,6.60
2013,10,24,03,24,6.60
2013,10,24,03,25,6.60
2013,10,24,03,26,6.60
2013,10,24,03,27,6.60
2013,10,24,03,28,6.70
2013,10,24,03,29,6.70
2013,10,24,03,30,6.70
2013,10,24,03,31,6.70
2013,10,24,03,32,6.70
2013,10,24,03,33,6.80
2013,10,24,03,34,6.70
2013,10,24,03,35,6.70
2013,10,24,03,36,6.70
2013,10,24,03,37,6.70
2013,10,24,03,38,6.70
2013,10,24,03,39,6.70
2013,10,24,03,40,6.60
2013,10,24,03,41,6.60
2013,10,24,03,42,6.50
2013,10,24,03,43,6.50
2013,10,24,03,44,6.50
2013,10,24,03,45,6.50
2013,10,24,03,46,6.50
2013,10,24,03,47,6.50
2013,10,24,03,48,6.50
2013,10,24,03,49,6.50
2013,10,24,03,50,6.50
2013,10,24,03,51,6.50
2013,10,24,03,52,6.50
2013,10,24,03,53,6.50
2013,10,24,03,54,6.50
2013,10,24,03,55,6.50
2013,10,24,03,56,6.50
2013,10,24,03,57,6.50
2013,10,24,03,58,6.50
2013,10,24,03,59,6.50
2013,10,24,04,00,6.50
2013,10,24,04,01,6.50
2013,10,24,04,02,6.50
2013,10,24,04,03,6.50
2013,10,24,04,04,6.50
2013,10,24,04,05,6.50
2013,10,24,04,06,6.40
2013,10,24,04,07,6.40
2013,10,24,04,08,6.40
2013,10,24,04,09,6.40
2013,10,24,04,10,6.40
2013,10,24,04,11,6.40
2013,10,24,04,12,6.40
2013,10,24,04,13,6.40
2013,10,24,04,14,6.40
2013,10,24,04,15,6.40
2013,10,24,04,16,6.40
2013,10,24,04,17,6.50
2013,10,24,04,18,6.50
2013,10,24,04,19,6.50
2013,10,24,04,20,6.60
2013,10,24,04,21,6.60
2013,10,24,04,22,6.60
2013,10,24,04,23,6.60
2013,10,24,04,24,6.60
2013,10,24,04,25,6.60
2013,10,24,04,26,6.60
2013,10,24,04,27,6.60
2013,10,24,04,28,6.60
2013,10,24,04,29,6.60
2013,10,24,04,30,6.60
2013,10,24,04,31,6.60
2013,10,24,04,32,6.60
2013,10,24,04,33,6.60
2013,10,24,04,34,6.60
2013,10,24,04,35,6.50
2013,10,24,04,36,6.50
2013,10,24,04,37,6.50
2013,10,24,04,38,6.40
2013,10,24,04,39,6.40
2013,10,24,04,40,6.40
2013,10,24,04,41,6.40
2013,10,24,04,42,6.30
2013,10,24,04,43,6.30
2013,10,24,04,44,6.30
2013,10,24,04,45,6.30
2013,10,24,04,46,6.30
2013,10,24,04,47,6.30
2013,10,24,04,48,6.30
2013,10,24,04,49,6.20
2013,10,24,04,50,6.20
2013,10,24,04,51,6.20
2013,10,24,04,52,6.20
2013,10,24,04,53,6.30
2013,10,24,04,54,6.30
2013,10,24,04,55,6.20
2013,10,24,04,56,6.20
2013,10,24,04,57,6.20
2013,10,24,04,58,6.20
2013,10,24,04,59,6.20
2013,10,24,05,00,6.20
2013,10,24,05,01,6.20
2013,10,24,05,02,6.20
2013,10,24,05,03,6.20
2013,10,24,05,04,6.20
2013,10,24,05,05,6.20
2013,10,24,05,06,6.20
2013,10,24,05,07,6.20
2013,10,24,05,08,6.20
2013,10,24,05,09,6.20
2013,10,24,05,10,6.10
2013,10,24,05,11,6.10
2013,10,24,05,12,6.20
2013,10,24,05,13,6.20
2013,10,24,05,14,6.20
2013,10,24,05,15,6.20
2013,10,24,05,16,6.20
2013,10,24,05,17,6.30
2013,10,24,05,18,6.30
2013,10,24,05,19,6.30
2013,10,24,05,20,6.30
2013,10,24,05,21,6.30
2013,10,24,05,22,6.30
2013,10,24,05,23,6.30
2013,10,24,05,24,6.30
2013,10,24,05,25,6.30
2013,10,24,05,26,6.30
2013,10,24,05,27,6.30
2013,10,24,05,28,6.30
2013,10,24,05,29,6.30
2013,10,24,05,30,6.30
2013,10,24,05,31,6.30
2013,10,24,05,32,6.30
2013,10,24,05,33,6.30
2013,10,24,05,34,6.30
2013,10,24,05,35,6.30
2013,10,24,05,36,6.30
2013,10,24,05,37,6.30
2013,10,24,05,38,6.30
2013,10,24,05,39,6.20
2013,10,24,05,40,6.20
2013,10,24,05,41,6.20
2013,10,24,05,42,6.20
2013,10,24,05,43,6.20
2013,10,24,05,44,6.20
2013,10,24,05,45,6.20
2013,10,24,05,46,6.20
2013,10,24,05,47,6.20
2013,10,24,05,48,6.20
2013,10,24,05,49,6.20
2013,10,24,05,50,6.20
2013,10,24,05,51,6.20
2013,10,24,05,52,6.20
2013,10,24,05,53,6.20
2013,10,24,05,54,6.20
2013,10,24,05,55,6.20
2013,10,24,05,56,6.20
2013,10,24,05,57,6.20
2013,10,24,05,58,6.20
2013,10,24,05,59,6.20
2013,10,24,06,00,6.20
2013,10,24,06,01,6.20
2013,10,24,06,02,6.20
2013,10,24,06,03,6.20
2013,10,24,06,04,6.20
2013,10,24,06,05,6.20
2013,10,24,06,06,6.20
2013,10,24,06,07,6.20
2013,10,24,06,08,6.10
2013,10,24,06,09,6.10
2013,10,24,06,10,6.10
2013,10,24,06,11,6.10
2013,10,24,06,12,6.10
2013,10,24,06,13,6.00
2013,10,24,06,14,6.00
2013,10,24,06,15,5.90
2013,10,24,06,16,5.90
2013,10,24,06,17,5.90
2013,10,24,06,18,6.00
2013,10,24,06,19,6.00
2013,10,24,06,20,6.00
2013,10,24,06,21,6.00
2013,10,24,06,22,6.00
2013,10,24,06,23,6.00
2013,10,24,06,24,6.00
2013,10,24,06,25,6.00
2013,10,24,06,26,6.00
2013,10,24,06,27,6.00
2013,10,24,06,28,6.00
2013,10,24,06,29,5.90
2013,10,24,06,30,5.90
2013,10,24,06,31,5.90
2013,10,24,06,32,5.90
2013,10,24,06,33,5.90
2013,10,24,06,34,5.90
2013,10,24,06,35,5.80
2013,10,24,06,36,5.80
2013,10,24,06,37,5.80
2013,10,24,06,38,5.80
2013,10,24,06,39,5.80
2013,10,24,06,40,5.80
2013,10,24,06,41,5.80
2013,10,24,06,42,5.90
2013,10,24,06,43,5.90
2013,10,24,06,44,5.90
2013,10,24,06,45,5.90
2013,10,24,06,46,5.90
2013,10,24,06,47,5.90
2013,10,24,06,48,5.90
2013,10,24,06,49,5.90
2013,10,24,06,50,5.90
2013,10,24,06,51,5.90
2013,10,24,06,52,5.90
2013,10,24,06,53,5.90
2013,10,24,06,54,5.90
2013,10,24,06,55,5.90
2013,10,24,06,56,6.00
2013,10,24,06,57,6.00
2013,10,24,06,58,6.00
2013,10,24,06,59,6.10
2013,10,24,07,00,6.10
2013,10,24,07,01,6.00
2013,10,24,07,02,6.00
2013,10,24,07,03,6.00
2013,10,24,07,04,6.00
2013,10,24,07,05,6.00
2013,10,24,07,06,6.00
2013,10,24,07,07,6.00
2013,10,24,07,08,6.00
2013,10,24,07,09,6.00
2013,10,24,07,10,6.10
2013,10,24,07,11,6.10
2013,10,24,07,12,6.10
2013,10,24,07,13,6.10
2013,10,24,07,14,6.10
2013,10,24,07,15,6.10
2013,10,24,07,16,6.10
2013,10,24,07,17,6.10
2013,10,24,07,18,6.00
2013,10,24,07,19,6.00
2013,10,24,07,20,5.90
2013,10,24,07,21,5.90
2013,10,24,07,22,5.90
2013,10,24,07,23,5.90
2013,10,24,07,24,5.90
2013,10,24,07,25,5.90
2013,10,24,07,26,5.90
2013,10,24,07,27,5.90
2013,10,24,07,28,5.90
2013,10,24,07,29,5.90
2013,10,24,07,30,5.90
2013,10,24,07,31,5.90
2013,10,24,07,32,5.90
2013,10,24,07,33,5.90
2013,10,24,07,34,5.90
2013,10,24,07,35,5.90
2013,10,24,07,36,5.90
2013,10,24,07,37,5.90
2013,10,24,07,38,5.80
2013,10,24,07,39,5.80
2013,10,24,07,40,5.80
2013,10,24,07,41,5.80
2013,10,24,07,42,5.80
2013,10,24,07,43,5.80
2013,10,24,07,44,5.80
2013,10,24,07,45,5.80
2013,10,24,07,46,5.80
2013,10,24,07,47,5.80
2013,10,24,07,48,5.80
2013,10,24,07,49,5.90
2013,10,24,07,50,5.90
2013,10,24,07,51,5.90
2013,10,24,07,52,5.90
2013,10,24,07,53,5.90
2013,10,24,07,54,5.90
2013,10,24,07,55,5.90
2013,10,24,07,56,5.90
2013,10,24,07,57,5.90
2013,10,24,07,58,5.90
2013,10,24,07,59,5.80
2013,10,24,08,00,5.80
2013,10,24,08,01,5.80
2013,10,24,08,02,5.80
2013,10,24,08,03,5.80
2013,10,24,08,04,5.80
2013,10,24,08,05,5.80
2013,10,24,08,06,5.80
2013,10,24,08,07,5.90
2013,10,24,08,08,5.90
2013,10,24,08,09,5.90
2013,10,24,08,10,5.90
2013,10,24,08,11,5.90
2013,10,24,08,12,5.90
2013,10,24,08,13,5.90
2013,10,24,08,14,5.90
2013,10,24,08,15,5.90
2013,10,24,08,16,5.80
2013,10,24,08,17,5.80
2013,10,24,08,18,5.80
2013,10,24,08,19,5.80
2013,10,24,08,20,5.80
2013,10,24,08,21,5.80
2013,10,24,08,22,5.80
2013,10,24,08,23,5.80
2013,10,24,08,24,5.80
2013,10,24,08,25,5.80
2013,10,24,08,26,5.80
2013,10,24,08,27,5.80
2013,10,24,08,28,5.80
2013,10,24,08,29,5.80
2013,10,24,08,30,5.80
2013,10,24,08,31,5.80
2013,10,24,08,32,5.80
2013,10,24,08,33,5.80
2013,10,24,08,34,5.80
2013,10,24,08,35,5.70
2013,10,24,08,36,5.70
2013,10,24,08,37,5.70
2013,10,24,08,38,5.70
2013,10,24,08,39,5.70
2013,10,24,08,40,5.70
2013,10,24,08,41,5.70
2013,10,24,08,42,5.80
2013,10,24,08,43,5.80
2013,10,24,08,44,5.80
2013,10,24,08,45,5.80
2013,10,24,08,46,5.90
2013,10,24,08,47,5.90
2013,10,24,08,48,5.90
2013,10,24,08,49,5.90
2013,10,24,08,50,6.00
2013,10,24,08,51,6.00
2013,10,24,08,52,6.00
2013,10,24,08,53,6.10
2013,10,24,08,54,6.10
2013,10,24,08,55,6.10
2013,10,24,08,56,6.10
2013,10,24,08,57,6.10
2013,10,24,08,58,6.20
2013,10,24,08,59,6.20
2013,10,24,09,00,6.20
2013,10,24,09,01,6.20
2013,10,24,09,02,6.20
2013,10,24,09,03,6.20
2013,10,24,09,04,6.20
2013,10,24,09,05,6.20
2013,10,24,09,06,6.20
2013,10,24,09,07,6.30
2013,10,24,09,08,6.30
2013,10,24,09,09,6.30
2013,10,24,09,10,6.30
2013,10,24,09,11,6.30
2013,10,24,09,12,6.40
2013,10,24,09,13,6.40
2013,10,24,09,14,6.40
2013,10,24,09,15,6.50
2013,10,24,09,16,6.50
2013,10,24,09,17,6.50
2013,10,24,09,18,6.50
2013,10,24,09,19,6.60
2013,10,24,09,20,6.60
2013,10,24,09,21,6.60
2013,10,24,09,22,6.60
2013,10,24,09,23,6.60
2013,10,24,09,24,6.70
2013,10,24,09,25,6.70
2013,10,24,09,26,6.70
2013,10,24,09,27,6.80
2013,10,24,09,28,6.80
2013,10,24,09,29,6.80
2013,10,24,09,30,6.80
2013,10,24,09,31,6.90
2013,10,24,09,32,6.90
2013,10,24,09,33,6.90
2013,10,24,09,34,7.00
2013,10,24,09,35,7.00
2013,10,24,09,36,7.10
2013,10,24,09,37,7.10
2013,10,24,09,38,7.10
2013,10,24,09,39,7.20
2013,10,24,09,40,7.20
2013,10,24,09,41,7.20
2013,10,24,09,42,7.20
2013,10,24,09,43,7.20
2013,10,24,09,44,7.30
2013,10,24,09,45,7.30
2013,10,24,09,46,7.30
2013,10,24,09,47,7.30
2013,10,24,09,48,7.40
2013,10,24,09,49,7.40
2013,10,24,09,50,7.40
2013,10,24,09,51,7.50
2013,10,24,09,52,7.50
2013,10,24,09,53,7.60
2013,10,24,09,54,7.60
2013,10,24,09,55,7.60
2013,10,24,09,56,7.60
2013,10,24,09,57,7.70
2013,10,24,09,58,7.70
2013,10,24,09,59,7.70
2013,10,24,10,00,7.80
2013,10,24,10,01,7.80
2013,10,24,10,02,7.80
2013,10,24,10,03,7.90
2013,10,24,10,04,7.90
2013,10,24,10,05,8.00
2013,10,24,10,06,8.00
2013,10,24,10,07,8.10
2013,10,24,10,08,8.10
2013,10,24,10,09,8.20
2013,10,24,10,10,8.20
2013,10,24,10,11,8.20
2013,10,24,10,12,8.20
2013,10,24,10,13,8.20
2013,10,24,10,14,8.30
2013,10,24,10,15,8.30
2013,10,24,10,16,8.30
2013,10,24,10,17,8.30
2013,10,24,10,18,8.40
2013,10,24,10,19,8.40
2013,10,24,10,20,8.40
2013,10,24,10,21,8.50
2013,10,24,10,22,8.50
2013,10,24,10,23,8.60
2013,10,24,10,24,8.60
2013,10,24,10,25,8.70
2013,10,24,10,26,8.70
2013,10,24,10,27,8.80
2013,10,24,10,28,8.80
2013,10,24,10,29,8.80
2013,10,24,10,30,8.90
2013,10,24,10,31,8.90
2013,10,24,10,32,9.00
2013,10,24,10,33,9.00
2013,10,24,10,34,9.10
2013,10,24,10,35,9.20
2013,10,24,10,36,9.20
2013,10,24,10,37,9.30
2013,10,24,10,38,9.30
2013,10,24,10,39,9.40
2013,10,24,10,40,9.50
2013,10,24,10,41,9.50
2013,10,24,10,42,9.60
2013,10,24,10,43,9.60
2013,10,24,10,44,9.70
2013,10,24,10,45,9.70
2013,10,24,10,46,9.80
2013,10,24,10,47,9.80
2013,10,24,10,48,9.90
2013,10,24,10,49,9.90
2013,10,24,10,50,10.00
2013,10,24,10,51,10.00
2013,10,24,10,52,10.00
2013,10,24,10,53,10.00
2013,10,24,10,54,10.10
2013,10,24,10,55,10.10
2013,10,24,10,56,10.10
2013,10,24,10,57,10.20
2013,10,24,10,58,10.20
2013,10,24,10,59,10.30
2013,10,24,11,00,10.40
2013,10,24,11,01,10.50
2013,10,24,11,02,10.60
2013,10,24,11,03,10.60
2013,10,24,11,04,10.60
2013,10,24,11,05,10.70
2013,10,24,11,06,10.80
2013,10,24,11,07,10.80
2013,10,24,11,08,10.90
2013,10,24,11,09,11.00
2013,10,24,11,10,11.00
2013,10,24,11,11,11.10
2013,10,24,11,12,11.20
2013,10,24,11,13,11.30
2013,10,24,11,14,11.40
2013,10,24,11,15,11.50
2013,10,24,11,16,11.60
2013,10,24,11,17,11.70
2013,10,24,11,18,11.80
2013,10,24,11,19,11.90
2013,10,24,11,20,12.00
2013,10,24,11,21,12.10
2013,10,24,11,22,12.20
2013,10,24,11,23,12.20
2013,10,24,11,24,12.30
2013,10,24,11,25,12.30
2013,10,24,11,26,12.40
2013,10,24,11,27,12.50
2013,10,24,11,28,12.60
2013,10,24,11,29,12.70
2013,10,24,11,30,12.80
2013,10,24,11,31,12.90
2013,10,24,11,32,12.90
2013,10,24,11,33,13.00
2013,10,24,11,34,13.10
2013,10,24,11,35,13.10
2013,10,24,11,36,13.20
2013,10,24,11,37,13.30
2013,10,24,11,38,13.30
2013,10,24,11,39,13.40
2013,10,24,11,40,13.50
2013,10,24,11,41,13.50
2013,10,24,11,42,13.50
2013,10,24,11,43,13.50
2013,10,24,11,44,13.50
2013,10,24,11,45,13.50
2013,10,24,11,46,13.50
2013,10,24,11,47,13.60
2013,10,24,11,48,13.60
2013,10,24,11,49,13.60
2013,10,24,11,50,13.70
2013,10,24,11,51,13.70
2013,10,24,11,52,13.80
2013,10,24,11,53,13.90
2013,10,24,11,54,13.90
2013,10,24,11,55,14.00
2013,10,24,11,56,14.10
2013,10,24,11,57,14.20
2013,10,24,11,58,14.20
2013,10,24,11,59,14.30
2013,10,24,12,00,14.40
2013,10,24,12,01,14.40
2013,10,24,12,02,14.50
2013,10,24,12,03,14.60
2013,10,24,12,04,14.60
2013,10,24,12,05,14.70
2013,10,24,12,06,14.70
2013,10,24,12,07,14.70
2013,10,24,12,08,14.70
2013,10,24,12,09,14.70
2013,10,24,12,10,14.70
2013,10,24,12,11,14.70
2013,10,24,12,12,14.80
2013,10,24,12,13,14.80
2013,10,24,12,14,14.90
2013,10,24,12,15,15.00
2013,10,24,12,16,15.00
2013,10,24,12,17,15.00
2013,10,24,12,18,15.00
2013,10,24,12,19,15.00
2013,10,24,12,20,15.00
2013,10,24,12,21,15.10
2013,10,24,12,22,15.20
2013,10,24,12,23,15.30
2013,10,24,12,24,15.30
2013,10,24,12,25,15.40
2013,10,24,12,26,15.40
2013,10,24,12,27,15.50
2013,10,24,12,28,15.50
2013,10,24,12,29,15.60
2013,10,24,12,30,15.70
2013,10,24,12,31,15.80
2013,10,24,12,32,15.80
2013,10,24,12,33,15.80
2013,10,24,12,34,15.90
2013,10,24,12,35,15.90
2013,10,24,12,36,15.90
2013,10,24,12,37,15.90
2013,10,24,12,38,15.90
2013,10,24,12,39,16.00
2013,10,24,12,40,16.00
2013,10,24,12,41,16.10
2013,10,24,12,42,16.10
2013,10,24,12,43,16.10
2013,10,24,12,44,16.20
2013,10,24,12,45,16.20
2013,10,24,12,46,16.20
2013,10,24,12,47,16.30
2013,10,24,12,48,16.30
2013,10,24,12,49,16.40
2013,10,24,12,50,16.50
2013,10,24,12,51,16.50
2013,10,24,12,52,16.60
2013,10,24,12,53,16.60
2013,10,24,12,54,16.60
2013,10,24,12,55,16.60
2013,10,24,12,56,16.60
2013,10,24,12,57,16.60
2013,10,24,12,58,16.60
2013,10,24,12,59,16.60
2013,10,24,13,00,16.60
2013,10,24,13,01,16.60
2013,10,24,13,02,16.70
2013,10,24,13,03,16.70
2013,10,24,13,04,16.80
2013,10,24,13,05,16.80
2013,10,24,13,06,16.80
2013,10,24,13,07,16.80
2013,10,24,13,08,16.80
2013,10,24,13,09,16.80
2013,10,24,13,10,16.80
2013,10,24,13,11,16.80
2013,10,24,13,12,16.90
2013,10,24,13,13,16.90
2013,10,24,13,14,16.80
2013,10,24,13,15,16.70
2013,10,24,13,16,16.60
2013,10,24,13,17,16.60
2013,10,24,13,18,16.60
2013,10,24,13,19,16.60
2013,10,24,13,20,16.60
2013,10,24,13,21,16.60
2013,10,24,13,22,16.60
2013,10,24,13,23,16.70
2013,10,24,13,24,16.70
2013,10,24,13,25,16.70
2013,10,24,13,26,16.80
2013,10,24,13,27,16.90
2013,10,24,13,28,16.90
2013,10,24,13,29,16.90
2013,10,24,13,30,17.00
2013,10,24,13,31,17.00
2013,10,24,13,32,17.00
2013,10,24,13,33,17.10
2013,10,24,13,34,17.10
2013,10,24,13,35,17.10
2013,10,24,13,36,17.10
2013,10,24,13,37,17.20
2013,10,24,13,38,17.20
2013,10,24,13,39,17.20
2013,10,24,13,40,17.20
2013,10,24,13,41,17.20
2013,10,24,13,42,17.20
2013,10,24,13,43,17.20
2013,10,24,13,44,17.20
2013,10,24,13,45,17.10
2013,10,24,13,46,17.10
2013,10,24,13,47,17.10
2013,10,24,13,48,17.10
2013,10,24,13,49,17.10
2013,10,24,13,50,17.10
2013,10,24,13,51,17.20
2013,10,24,13,52,17.20
2013,10,24,13,53,17.20
2013,10,24,13,54,17.20
2013,10,24,13,55,17.20
2013,10,24,13,56,17.10
2013,10,24,13,57,17.10
2013,10,24,13,58,17.00
2013,10,24,13,59,17.00
2013,10,24,14,00,16.90
2013,10,24,14,01,16.90
2013,10,24,14,02,16.90
2013,10,24,14,03,16.80
2013,10,24,14,04,16.80
2013,10,24,14,05,16.80
2013,10,24,14,06,16.80
2013,10,24,14,07,16.90
2013,10,24,14,08,16.90
2013,10,24,14,09,17.00
2013,10,24,14,10,17.00
2013,10,24,14,11,17.10
2013,10,24,14,12,17.10
2013,10,24,14,13,17.10
2013,10,24,14,14,17.20
2013,10,24,14,15,17.20
2013,10,24,14,16,17.30
2013,10,24,14,17,17.30
2013,10,24,14,18,17.30
2013,10,24,14,19,17.30
2013,10,24,14,20,17.20
2013,10,24,14,21,17.10
2013,10,24,14,22,17.00
2013,10,24,14,23,17.00
2013,10,24,14,24,16.90
2013,10,24,14,25,16.90
2013,10,24,14,26,16.80
2013,10,24,14,27,16.80
2013,10,24,14,28,16.70
2013,10,24,14,29,16.60
2013,10,24,14,30,16.50
2013,10,24,14,31,16.40
2013,10,24,14,32,16.30
2013,10,24,14,33,16.20
2013,10,24,14,34,16.20
2013,10,24,14,35,16.10
2013,10,24,14,36,16.10
2013,10,24,14,37,16.10
2013,10,24,14,38,16.10
2013,10,24,14,39,16.20
2013,10,24,14,40,16.20
2013,10,24,14,41,16.30
2013,10,24,14,42,16.30
2013,10,24,14,43,16.30
2013,10,24,14,44,16.40
2013,10,24,14,45,16.50
2013,10,24,14,46,16.50
2013,10,24,14,47,16.60
2013,10,24,14,48,16.70
2013,10,24,14,49,16.70
2013,10,24,14,50,16.70
2013,10,24,14,51,16.80
2013,10,24,14,52,16.90
2013,10,24,14,53,16.90
2013,10,24,14,54,17.00
2013,10,24,14,55,17.10
2013,10,24,14,56,17.10
2013,10,24,14,57,17.20
2013,10,24,14,58,17.20
2013,10,24,14,59,17.20
2013,10,24,15,00,17.20
2013,10,24,15,01,17.20
2013,10,24,15,02,17.10
2013,10,24,15,03,17.10
2013,10,24,15,04,17.00
2013,10,24,15,05,16.90
2013,10,24,15,06,16.90
2013,10,24,15,07,16.90
2013,10,24,15,08,16.90
2013,10,24,15,09,17.00
2013,10,24,15,10,17.00
2013,10,24,15,11,17.00
2013,10,24,15,12,17.00
2013,10,24,15,13,17.10
2013,10,24,15,14,17.10
2013,10,24,15,15,17.10
2013,10,24,15,16,17.10
2013,10,24,15,17,17.00
2013,10,24,15,18,17.00
2013,10,24,15,19,16.90
2013,10,24,15,20,16.80
2013,10,24,15,21,16.80
2013,10,24,15,22,16.80
2013,10,24,15,23,16.70
2013,10,24,15,24,16.70
2013,10,24,15,25,16.70
2013,10,24,15,26,16.60
2013,10,24,15,27,16.60
2013,10,24,15,28,16.60
2013,10,24,15,29,16.50
2013,10,24,15,30,16.50
2013,10,24,15,31,16.40
2013,10,24,15,32,16.40
2013,10,24,15,33,16.50
2013,10,24,15,34,16.50
2013,10,24,15,35,16.50
2013,10,24,15,36,16.40
2013,10,24,15,37,16.40
2013,10,24,15,38,16.40
2013,10,24,15,39,16.40
2013,10,24,15,40,16.40
2013,10,24,15,41,16.50
2013,10,24,15,42,16.50
2013,10,24,15,43,16.50
2013,10,24,15,44,16.60
2013,10,24,15,45,16.60
2013,10,24,15,46,16.60
2013,10,24,15,47,16.60
2013,10,24,15,48,16.60
2013,10,24,15,49,16.60
2013,10,24,15,50,16.60
2013,10,24,15,51,16.60
2013,10,24,15,52,16.60
2013,10,24,15,53,16.70
2013,10,24,15,54,16.70
2013,10,24,15,55,16.70
2013,10,24,15,56,16.70
2013,10,24,15,57,16.70
2013,10,24,15,58,16.60
2013,10,24,15,59,16.50
2013,10,24,16,00,16.50
2013,10,24,16,01,16.40
2013,10,24,16,02,16.40
2013,10,24,16,03,16.40
2013,10,24,16,04,16.30
2013,10,24,16,05,16.30
2013,10,24,16,06,16.30
2013,10,24,16,07,16.20
2013,10,24,16,08,16.20
2013,10,24,16,09,16.20
2013,10,24,16,10,16.20
2013,10,24,16,11,16.20
2013,10,24,16,12,16.20
2013,10,24,16,13,16.20
2013,10,24,16,14,16.20
2013,10,24,16,15,16.20
2013,10,24,16,16,16.20
2013,10,24,16,17,16.10
2013,10,24,16,18,16.10
2013,10,24,16,19,16.10
2013,10,24,16,20,16.10
2013,10,24,16,21,16.10
2013,10,24,16,22,16.10
2013,10,24,16,23,16.10
2013,10,24,16,24,16.10
2013,10,24,16,25,16.10
2013,10,24,16,26,16.20
2013,10,24,16,27,16.20
2013,10,24,16,28,16.30
2013,10,24,16,29,16.30
2013,10,24,16,30,16.40
2013,10,24,16,31,16.40
2013,10,24,16,32,16.40
2013,10,24,16,33,16.50
2013,10,24,16,34,16.50
2013,10,24,16,35,16.50
2013,10,24,16,36,16.50
2013,10,24,16,37,16.40
2013,10,24,16,38,16.40
2013,10,24,16,39,16.40
2013,10,24,16,40,16.30
2013,10,24,16,41,16.20
2013,10,24,16,42,16.10
2013,10,24,16,43,15.90
2013,10,24,16,44,15.90
2013,10,24,16,45,15.80
2013,10,24,16,46,15.70
2013,10,24,16,47,15.60
2013,10,24,16,48,15.50
2013,10,24,16,49,15.50
2013,10,24,16,50,15.40
2013,10,24,16,51,15.30
2013,10,24,16,52,15.30
2013,10,24,16,53,15.30
2013,10,24,16,54,15.30
2013,10,24,16,55,15.30
2013,10,24,16,56,15.30
2013,10,24,16,57,15.20
2013,10,24,16,58,15.10
2013,10,24,16,59,15.10
2013,10,24,17,00,15.00
2013,10,24,17,01,15.00
2013,10,24,17,02,15.00
2013,10,24,17,03,15.00
2013,10,24,17,04,15.00
2013,10,24,17,05,15.00
2013,10,24,17,06,15.00
2013,10,24,17,07,14.90
2013,10,24,17,08,14.90
2013,10,24,17,09,14.80
2013,10,24,17,10,14.80
2013,10,24,17,11,14.70
2013,10,24,17,12,14.70
2013,10,24,17,13,14.70
2013,10,24,17,14,14.60
2013,10,24,17,15,14.50
2013,10,24,17,16,14.50
2013,10,24,17,17,14.40
2013,10,24,17,18,14.40
2013,10,24,17,19,14.30
2013,10,24,17,20,14.20
2013,10,24,17,21,14.20
2013,10,24,17,22,14.10
2013,10,24,17,23,14.00
2013,10,24,17,24,13.90
2013,10,24,17,25,13.90
2013,10,24,17,26,13.80
2013,10,24,17,27,13.80
2013,10,24,17,28,13.70
2013,10,24,17,29,13.70
2013,10,24,17,30,13.60
2013,10,24,17,31,13.50
2013,10,24,17,32,13.50
2013,10,24,17,33,13.40
2013,10,24,17,34,13.30
2013,10,24,17,35,13.30
2013,10,24,17,36,13.20
2013,10,24,17,37,13.20
2013,10,24,17,38,13.10
2013,10,24,17,39,13.10
2013,10,24,17,40,13.00
2013,10,24,17,41,13.00
2013,10,24,17,42,12.90
2013,10,24,17,43,12.80
2013,10,24,17,44,12.80
2013,10,24,17,45,12.80
2013,10,24,17,46,12.70
2013,10,24,17,47,12.70